Погода в Фуяне

Китай     32°54′11″N   115°49′22″E
темп.,
°C
ветер,
м/с
пор.,
м/с
влажн.,
%
обл.,
%
осадки,
мм/ч
давл.,
гПа
погр.,
м
1 марта, пн
пн123:00+10сз2399100 0.9 101795
02:00+10сз4898100 4.6 1017371
05:00+9с61191100 0.9 1019622
08:00+8ссз71286100 0.9 1022697
11:00+8ссз81177100 0.0 1025928
14:00+7с81174100 0.0 1025758
17:00+6с797299 0.0 1027954
20:00+4с377895 0.0 1029329
2 марта, вт
вт223:00+3с248067 0.0 1030152
02:00+2с228384 0.0 103025
05:00+1в118735 0.0 102922
08:00+3ююв117718 0.0 103085
11:00+9ююв22550 0.0 1030632
14:00+12вюв334316 0.0 1028928
17:00+11юв3553100 0.0 1026891
20:00+8вюв3363100 0.0 102875
3 марта, ср
ср323:00+7юв41164100 0.0 1028293
02:00+6юв51263100 0.0 1026351
05:00+5юв4873100 0.0 1025214
08:00+6юв5107191 0.0 1025310
11:00+11юв5661100 0.0 1025513
14:00+15юв334480 0.0 1021974
17:00+14юв334915 0.0 1019917
20:00+9вюв236235 0.0 102133
4 марта, чт
чт423:00+8юв2367100 0.0 102138
02:00+7ю237353 0.0 102029
05:00+7ю23790 0.0 101933
08:00+9ююз36860 0.0 1020211
11:00+16юз44610 0.0 1020826
14:00+18ююз44480 0.0 10181339
17:00+18ююв23520 0.0 10171077
20:00+12вюв34690 0.0 101845
5 марта, пт
пт523:00+10юв34750 0.0 101992
02:00+9в33824 0.0 101846
05:00+9в368483 0.0 1016116
08:00+10в387891 0.0 1017229
11:00+11всв2579100 0.1 1018266
14:00+11всв3682100 0.5 1018333
17:00+10всв2587100 0.3 1018305
20:00+9в2292100 0.3 102022